Wind_Speed
67 69 70 72 74 76 78 81 83 84 82 81 83 84 86 87 88 88 88 87 85 84 83 84 85 86 87 87 88 89 90 91 91 91 89 88 86 84
70 72 73 75 77 79 80 82 85 87 87 84 84 84 85 84 82 81 81 80 79 77 77 77 78 79 80 81 82 83 84 85 86 87 87 86 86 85
73 75 76 78 79 81 83 84 85 86 88 83 82 80 79 77 74 73 72 71 71 71 70 70 70 71 71 72 73 74 76 77 78 79 81 82 82 82
75 77 78 80 81 83 84 84 84 83 84 81 76 73 70 69 67 66 65 64 63 63 63 63 63 63 63 63 64 64 65 67 69 71 73 76 77 79
78 79 80 82 83 83 83 82 80 79 77 75 70 66 63 62 61 60 58 57 57 56 57 56 56 57 58 58 58 58 59 60 62 64 66 68 71 73
80 81 82 82 82 81 79 77 75 73 70 67 63 59 57 56 55 54 53 52 52 52 53 53 53 53 53 53 53 54 54 54 55 57 59 61 65 67
80 81 81 80 78 77 75 71 68 65 62 60 57 54 52 51 50 50 50 49 48 49 49 49 50 49 49 50 50 50 50 50 51 53 55 56 58 62
81 80 78 76 74 71 68 65 62 60 57 55 53 50 48 48 48 48 48 47 46 46 47 46 47 46 46 47 47 47 48 48 48 49 51 53 55 56
80 78 75 72 68 65 61 58 56 55 53 52 50 47 46 45 46 46 46 46 44 43 44 43 43 42 42 43 43 44 44 45 45 46 47 50 52 54
77 74 70 65 62 59 56 53 51 49 49 49 47 45 45 44 45 45 44 43 42 41 42 41 39 40 40 40 40 41 41 42 42 43 44 46 48 50
72 68 64 60 56 54 52 49 47 45 46 45 45 44 43 43 44 44 43 43 40 38 39 39 38 38 38 38 39 40 40 40 40 41 42 43 45 47
66 61 57 55 51 50 48 46 44 43 43 43 43 42 42 42 42 43 42 41 40 37 36 37 37 37 36 36 37 38 38 38 39 39 40 42 43 46
60 55 52 50 47 46 45 44 43 42 41 41 40 39 39 40 40 40 40 40 40 38 36 36 36 36 36 34 35 36 37 37 38 38 39 40 42 44
55 51 48 45 44 43 42 41 41 41 40 39 38 38 37 38 37 37 38 39 39 38 36 36 35 34 34 34 33 34 36 37 37 38 38 39 40 41
51 48 45 43 42 40 40 40 40 39 38 37 36 35 35 35 35 35 36 36 36 36 35 35 34 33 33 33 32 33 34 35 36 37 38 38 39 40
47 44 42 41 40 39 38 38 37 37 36 36 35 34 34 34 34 34 34 34 34 33 34 34 33 33 32 32 32 31 32 33 35 36 37 37 38 39
44 41 39 37 36 36 35 35 35 35 35 35 35 34 34 33 33 33 33 32 32 32 32 32 32 32 31 31 31 30 30 31 33 35 36 36 37 38
42 39 37 35 34 33 33 33 33 34 34 34 35 34 33 32 31 31 31 31 31 30 30 30 31 30 30 29 30 30 30 30 32 33 33 34 34 35
39 37 35 33 33 32 32 32 32 33 33 34 34 33 32 31 31 30 30 30 29 29 28 28 28 28 27 27 28 29 29 29 30 30 31 32 33 35
37 35 33 32 32 31 30 31 31 32 32 33 32 32 31 30 30 30 30 29 28 27 26 26 26 26 26 26 26 27 29 29 30 31 32 33 34 35
34 33 32 31 30 30 30 30 30 31 31 32 31 30 30 29 29 29 28 28 27 26 26 26 26 26 26 26 26 27 29 30 30 30 31 32 34 35
32 31 30 30 29 29 29 30 30 31 31 31 30 29 29 29 28 28 27 27 26 26 26 27 27 27 27 27 27 28 29 30 31 31 31 32 33 33
31 30 29 29 29 29 29 30 31 31 31 30 29 28 28 27 27 27 27 27 26 26 26 26 27 27 28 28 29 29 29 31 32 32 32 33 33 34
Wind_Direction
297 297 297 296 296 295 294 294 293 291 289 289 288 287 286 284 283 282 280 278 276 274 273 271 269 268 266 265 263 261 259 258 256 255 254 253 253 252
298 298 298 297 297 296 296 295 294 293 292 291 290 289 287 285 284 282 281 279 278 276 275 273 271 269 267 265 264 262 260 258 256 254 252 251 251 250
300 300 300 299 299 298 297 297 296 295 294 293 291 290 288 286 284 282 281 280 279 278 277 275 273 271 269 267 265 263 261 258 256 253 251 249 248 248
302 301 301 301 300 300 299 298 297 296 295 294 292 290 288 286 284 282 282 281 280 279 278 276 275 272 270 268 266 264 262 259 256 254 251 249 247 246
303 303 303 302 301 301 300 299 297 296 295 294 293 290 288 286 284 283 282 282 281 280 279 278 277 275 271 269 266 264 262 260 257 254 251 248 246 244
305 305 304 303 302 301 300 298 297 296 294 293 293 291 288 286 285 283 282 282 282 281 280 279 278 276 272 269 266 264 262 259 257 254 251 248 245 243
306 305 304 303 302 300 299 298 296 295 294 292 292 290 288 286 284 284 283 282 282 282 281 281 279 277 273 269 266 264 261 258 256 254 251 248 246 244
306 305 304 303 301 300 298 297 296 295 294 292 291 290 288 286 285 284 284 283 282 281 281 281 280 277 273 270 266 264 262 258 256 254 251 247 246 245
307 306 304 302 300 299 297 296 295 294 294 293 292 291 289 288 287 286 286 285 284 283 281 280 278 276 273 269 266 264 263 259 255 254 252 248 246 244
307 305 304 302 300 298 296 295 294 294 293 293 292 292 291 290 289 288 287 286 285 284 283 281 278 274 272 269 266 264 262 259 256 254 252 249 245 243
306 305 303 301 299 298 297 296 295 294 293 292 292 291 291 290 290 289 288 287 286 284 282 281 279 276 272 269 266 264 262 259 257 253 251 248 245 243
306 304 302 301 299 298 297 297 296 295 294 293 292 291 291 290 289 289 288 287 287 286 283 281 279 277 274 270 266 263 261 259 256 253 250 248 245 243
306 303 302 300 299 298 298 297 297 296 295 294 293 291 290 289 289 288 287 287 287 287 284 281 280 278 275 270 265 262 260 258 255 252 250 248 247 245
306 304 302 300 299 298 298 298 298 298 298 297 295 293 291 290 289 288 287 287 287 286 284 282 279 277 275 271 266 261 259 257 255 253 250 249 247 245
305 304 302 300 299 298 298 298 298 298 298 298 297 295 293 291 290 289 289 288 286 285 284 282 279 277 274 272 268 263 259 256 254 252 250 249 247 245
304 302 301 300 299 298 298 298 298 298 298 298 298 297 295 293 291 290 289 289 287 285 283 282 280 277 274 272 269 265 261 256 254 252 250 249 248 247
303 301 300 298 298 298 298 298 298 298 298 298 298 297 296 294 292 291 290 290 288 285 282 281 279 278 275 272 270 267 262 258 254 253 251 250 248 247
304 303 301 300 299 299 299 299 299 299 298 298 298 297 296 295 293 292 291 291 289 286 283 280 278 277 276 273 269 265 262 259 256 254 252 249 247 246
304 303 302 301 300 301 301 301 301 300 300 300 299 297 296 295 294 293 293 291 290 287 284 281 279 277 274 272 269 266 263 260 258 254 252 249 247 245
304 303 302 302 301 302 302 303 303 303 303 302 300 298 296 295 294 294 293 291 289 287 285 283 280 277 275 271 268 267 265 263 259 256 254 251 248 247
303 303 302 302 302 302 303 304 305 305 305 304 302 300 298 296 295 295 294 292 289 286 284 282 280 278 276 273 269 266 265 264 262 259 256 254 251 249
303 302 301 301 302 303 304 306 307 307 307 306 304 302 300 298 296 295 293 292 289 286 284 282 279 278 276 274 271 268 266 265 263 261 259 256 253 250
303 302 301 301 302 303 304 306 308 308 308 307 305 303 301 299 297 296 294 292 290 287 285 283 281 279 277 275 272 270 267 265 264 262 260 257 254 251
Height
5657 5650 5644 5637 5629 5622 5614 5606 5599 5595 5598 5594 5584 5575 5566 5560 5554 5548 5545 5542 5539 5537 5534 5532 5531 5531 5532 5534 5536 5539 5542 5547 5552 5558 5564 5570 5577 5584
5638 5631 5624 5616 5608 5600 5592 5583 5574 5565 5565 5568 5557 5547 5538 5532 5526 5520 5516 5512 5510 5508 5506 5504 5503 5503 5504 5506 5508 5510 5514 5518 5523 5529 5536 5544 5551 5558
5619 5610 5603 5594 5586 5577 5568 5559 5550 5539 5534 5538 5530 5520 5512 5505 5501 5496 5492 5489 5486 5483 5481 5479 5478 5478 5479 5480 5482 5484 5487 5491 5496 5502 5508 5517 5525 5534
5598 5589 5581 5571 5562 5553 5543 5534 5525 5515 5506 5506 5505 5496 5489 5482 5477 5474 5471 5467 5465 5462 5459 5458 5457 5457 5457 5457 5459 5461 5464 5467 5472 5477 5484 5493 5501 5508
5577 5568 5558 5548 5539 5529 5519 5510 5501 5492 5483 5478 5479 5474 5468 5462 5457 5454 5451 5448 5446 5443 5441 5439 5438 5437 5437 5438 5439 5441 5444 5447 5451 5456 5461 5468 5476 5485
5556 5545 5535 5524 5515 5505 5496 5487 5478 5471 5464 5458 5455 5453 5449 5443 5438 5436 5434 5432 5429 5427 5424 5422 5421 5420 5419 5420 5421 5423 5425 5428 5431 5436 5441 5448 5455 5463
5535 5524 5513 5502 5492 5482 5473 5466 5458 5451 5446 5440 5437 5434 5432 5427 5423 5419 5417 5416 5415 5411 5409 5407 5405 5404 5403 5403 5404 5405 5408 5411 5414 5419 5423 5429 5436 5443
5513 5502 5491 5481 5471 5462 5453 5446 5439 5433 5428 5424 5420 5417 5415 5411 5407 5404 5402 5401 5400 5398 5393 5393 5390 5389 5388 5387 5388 5390 5392 5395 5399 5402 5407 5412 5418 5425
5490 5480 5470 5460 5451 5443 5436 5430 5424 5417 5412 5407 5404 5402 5399 5396 5392 5390 5387 5385 5384 5382 5379 5378 5376 5375 5374 5373 5374 5376 5378 5380 5384 5388 5392 5397 5402 5409
5468 5458 5449 5441 5432 5425 5419 5415 5410 5404 5398 5393 5390 5387 5384 5381 5378 5375 5372 5371 5370 5368 5364 5363 5363 5362 5361 5361 5361 5363 5364 5367 5370 5374 5378 5382 5388 5394
5449 5439 5430 5423 5416 5408 5403 5399 5395 5390 5385 5380 5376 5373 5370 5367 5364 5361 5359 5356 5356 5355 5352 5350 5350 5349 5349 5349 5349 5350 5352 5354 5357 5361 5365 5369 5374 5379
5431 5422 5413 5406 5400 5394 5388 5384 5380 5376 5372 5368 5364 5361 5357 5354 5351 5348 5345 5343 5342 5342 5341 5338 5337 5336 5336 5337 5337 5338 5340 5342 5344 5348 5352 5356 5361 5366
5413 5406 5399 5392 5386 5381 5375 5371 5367 5362 5359 5355 5352 5349 5346 5342 5339 5336 5333 5331 5329 5329 5328 5326 5325 5324 5324 5325 5325 5326 5328 5330 5332 5336 5340 5344 5348 5353
5397 5390 5384 5378 5373 5368 5363 5359 5354 5350 5346 5342 5339 5336 5333 5330 5328 5325 5322 5319 5317 5316 5315 5314 5313 5312 5312 5312 5314 5315 5316 5319 5321 5324 5328 5332 5336 5340
5382 5376 5371 5365 5360 5356 5352 5347 5343 5339 5335 5331 5328 5325 5321 5318 5316 5314 5311 5308 5306 5305 5303 5302 5301 5301 5300 5301 5302 5303 5305 5307 5310 5313 5316 5320 5324 5328
5369 5364 5359 5353 5349 5345 5341 5337 5332 5328 5324 5320 5317 5314 5311 5308 5305 5303 5300 5298 5296 5294 5292 5291 5290 5290 5289 5290 5291 5292 5294 5296 5298 5301 5304 5308 5312 5316
5356 5352 5347 5343 5339 5334 5330 5326 5322 5318 5314 5310 5307 5303 5300 5297 5295 5292 5290 5287 5285 5284 5282 5280 5279 5279 5279 5279 5280 5281 5282 5284 5286 5289 5292 5296 5300 5304
5343 5339 5335 5331 5327 5324 5320 5316 5312 5308 5304 5300 5297 5293 5290 5287 5284 5282 5279 5277 5275 5273 5271 5270 5269 5269 5269 5269 5270 5271 5272 5273 5275 5278 5281 5284 5288 5292
5332 5328 5324 5320 5317 5313 5310 5306 5302 5298 5294 5290 5286 5283 5279 5277 5274 5272 5269 5266 5264 5263 5261 5260 5259 5259 5259 5259 5260 5260 5262 5263 5265 5267 5270 5273 5277 5280
5321 5317 5314 5310 5307 5303 5300 5296 5292 5288 5284 5280 5276 5272 5269 5266 5264 5261 5259 5257 5255 5253 5252 5251 5250 5249 5249 5250 5251 5251 5251 5253 5255 5257 5259 5262 5265 5268
5312 5308 5304 5301 5297 5294 5290 5287 5283 5279 5275 5270 5266 5263 5260 5257 5254 5252 5249 5247 5245 5244 5243 5242 5241 5240 5240 5240 5242 5242 5241 5242 5244 5246 5248 5250 5253 5256
5303 5299 5295 5292 5288 5285 5281 5278 5274 5270 5265 5261 5257 5253 5250 5247 5245 5242 5240 5238 5236 5235 5234 5233 5231 5231 5230 5231 5231 5231 5231 5232 5232 5234 5236 5238 5240 5244
5293 5290 5286 5283 5280 5276 5272 5269 5265 5260 5256 5252 5248 5245 5241 5238 5235 5233 5231 5229 5227 5225 5224 5223 5222 5221 5220 5220 5220 5220 5221 5221 5221 5222 5224 5225 5228 5231